Location: Acton
(51.4942°N, 0.2232°W)
Time: 06:23:05
(UTC+00:00)

ATLAS 2AS CENTAUR R/B - Pass Details

Date: 18 September 2020
Orbit: 939 x 1273 km, 63.7° (Epoch: 19 October)

Event Time Altitude Azimuth Distance (km) Brightness Sun altitude
Rises 19:14:45 0° 154° (SSE) 4,197 5.4 -11.1°
Enters shadow 19:16:57 - 144° (SE) 3,671 5.0 -11.5°
Exits shadow 19:24:45 13° 87° (E) 3,018 4.5 -12.6°
Drops below altitude 10° 19:26:44 10° 73° (ENE) 3,263 4.8 -12.9°
Sets 19:31:05 0° 51° (NE) 4,209 5.5 -13.5°
